• In Spain
  • List of Countries
  • For 7 days
  • Water Temperature
  • Satellite Maps
  • Weather Map
  • Weather Widgets
  • user-avatar
    Login

    Hourly Weather Lezhe

    Today, 22 October, Monday

    Time Temperature Precipitation Wind Pressure Humidity
    00:00 +12°C° 0.1 mm 4 mps 738 mmHg 73%
    01:00 +11°C° 0.1 mm 4 mps 738 mmHg 73%
    02:00 +11°C° 0 mm 4 mps 738 mmHg 74%
    03:00 +11°C° 0 mm 4 mps 738 mmHg 75%
    04:00 +11°C° 0 mm 4 mps 738 mmHg 76%
    05:00 +11°C° 0 mm 4 mps 738 mmHg 75%
    06:00 +11°C° 0 mm 4 mps 738 mmHg 74%
    07:00 +11°C° 0 mm 4 mps 738 mmHg 74%
    08:00 +13°C° 0 mm 4 mps 738 mmHg 68%
    09:00 +15°C° 0 mm 5 mps 738 mmHg 62%
    10:00 +17°C° 0 mm 5 mps 738 mmHg 56%
    11:00 +19°C° 0 mm 4 mps 738 mmHg 53%
    12:00 +19°C° 0 mm 4 mps 737 mmHg 51%
    13:00 +20°C° 0 mm 4 mps 737 mmHg 48%
    14:00 +19°C° 0.1 mm 4 mps 737 mmHg 52%
    15:00 +18°C° 0.1 mm 4 mps 737 mmHg 55%
    16:00 +18°C° 0.1 mm 4 mps 736 mmHg 59%
    17:00 +17°C° 0.4 mm 3 mps 737 mmHg 64%
    18:00 +16°C° 0.4 mm 3 mps 737 mmHg 69%
    19:00 +14°C° 0.4 mm 3 mps 737 mmHg 74%
    20:00 +14°C° 0.6 mm 3 mps 738 mmHg 76%
    21:00 +13°C° 0.6 mm 3 mps 738 mmHg 77%
    22:00 +13°C° 0.6 mm 4 mps 738 mmHg 79%
    23:00 +13°C° 0.3 mm 4 mps 738 mmHg 80%

    Tomorrow, 23 October, Tuesday

    Time Temperature Precipitation Wind Pressure Humidity
    00:00 +13°C° 0.3 mm 4 mps 738 mmHg 80%
    01:00 +13°C° 0.3 mm 4 mps 738 mmHg 80%
    02:00 +13°C° 0.1 mm 4 mps 738 mmHg 80%
    03:00 +13°C° 0.1 mm 4 mps 738 mmHg 79%
    04:00 +13°C° 0.1 mm 4 mps 738 mmHg 79%
    05:00 +13°C° 0 mm 4 mps 738 mmHg 79%
    06:00 +13°C° 0 mm 4 mps 738 mmHg 78%
    07:00 +13°C° 0 mm 4 mps 738 mmHg 78%
    08:00 +14°C° 0 mm 4 mps 738 mmHg 72%
    09:00 +17°C° 0 mm 4 mps 738 mmHg 65%
    10:00 +17°C° 0 mm 5 mps 739 mmHg 58%
    11:00 +19°C° 0 mm 4 mps 738 mmHg 55%
    12:00 +20°C° 0 mm 4 mps 738 mmHg 51%
    13:00 +20°C° 0 mm 4 mps 738 mmHg 48%
    14:00 +20°C° 0 mm 4 mps 737 mmHg 50%
    15:00 +19°C° 0 mm 4 mps 737 mmHg 51%
    16:00 +19°C° 0 mm 4 mps 737 mmHg 53%
    17:00 +17°C° 0 mm 4 mps 737 mmHg 58%
    18:00 +15°C° 0 mm 4 mps 738 mmHg 62%
    19:00 +13°C° 0 mm 3 mps 738 mmHg 67%
    20:00 +13°C° 0 mm 3 mps 738 mmHg 70%
    21:00 +12°C° 0 mm 3 mps 738 mmHg 72%
    22:00 +12°C° 0 mm 3 mps 738 mmHg 74%
    23:00 +11°C° 0 mm 3 mps 738 mmHg 75%

    Day after tomorrow, 24 October, Wednesday

    Time Temperature Precipitation Wind Pressure Humidity
    00:00 +11°C° 0 mm 3 mps 737 mmHg 77%
    01:00 +11°C° 0 mm 3 mps 737 mmHg 78%
    02:00 +11°C° 0 mm 3 mps 737 mmHg 77%
    03:00 +10°C° 0 mm 2 mps 736 mmHg 75%
    04:00 +10°C° 0 mm 2 mps 736 mmHg 74%
    05:00 +12°C° 0 mm 2 mps 736 mmHg 70%
    06:00 +12°C° 0 mm 2 mps 736 mmHg 66%
    07:00 +13°C° 0 mm 2 mps 735 mmHg 61%
    08:00 +15°C° 0 mm 1 mps 735 mmHg 53%
    09:00 +19°C° 0 mm 1 mps 735 mmHg 45%
    10:00 +21°C° 0 mm 1 mps 735 mmHg 37%
    11:00 +21°C° 0 mm 2 mps 734 mmHg 37%
    12:00 +21°C° 0 mm 3 mps 734 mmHg 37%
    13:00 +22°C° 0 mm 3 mps 733 mmHg 38%
    14:00 +21°C° 0 mm 3 mps 733 mmHg 42%
    15:00 +20°C° 0 mm 3 mps 733 mmHg 46%
    16:00 +19°C° 0 mm 3 mps 733 mmHg 50%
    17:00 +18°C° 0 mm 3 mps 733 mmHg 55%
    18:00 +16°C° 0 mm 3 mps 734 mmHg 60%
    19:00 +14°C° 0 mm 3 mps 734 mmHg 65%
    20:00 +13°C° 0 mm 3 mps 735 mmHg 66%
    21:00 +13°C° 0 mm 3 mps 735 mmHg 67%
    22:00 +13°C° 0 mm 4 mps 736 mmHg 67%
    23:00 +12°C° 0 mm 4 mps 736 mmHg 68%

    25 October, Thursday

    Time Temperature Precipitation Wind Pressure Humidity
    00:00 +9°C° 0 mm 5 mps 737 mmHg 69%
    01:00 +8°C° 0 mm 5 mps 737 mmHg 70%
    02:00 +7°C° 0 mm 5 mps 737 mmHg 68%
    03:00 +6°C° 0 mm 4 mps 738 mmHg 67%
    04:00 +5°C° 0 mm 4 mps 738 mmHg 65%
    05:00 +5°C° 0 mm 4 mps 739 mmHg 62%
    06:00 +5°C° 0 mm 4 mps 739 mmHg 58%
    07:00 +5°C° 0 mm 4 mps 740 mmHg 55%
    08:00 +7°C° 0 mm 4 mps 740 mmHg 46%
    09:00 +10°C° 0 mm 4 mps 740 mmHg 37%
    10:00 +12°C° 0 mm 4 mps 740 mmHg 27%
    11:00 +13°C° 0 mm 4 mps 740 mmHg 26%
    12:00 +14°C° 0 mm 3 mps 740 mmHg 24%
    13:00 +16°C° 0 mm 3 mps 739 mmHg 23%
    14:00 +16°C° 0 mm 3 mps 739 mmHg 27%
    15:00 +16°C° 0 mm 3 mps 739 mmHg 30%
    16:00 +14°C° 0 mm 3 mps 739 mmHg 34%
    17:00 +13°C° 0 mm 3 mps 740 mmHg 38%
    18:00 +11°C° 0 mm 3 mps 740 mmHg 41%
    19:00 +10°C° 0 mm 2 mps 740 mmHg 44%
    20:00 +9°C° 0 mm 2 mps 740 mmHg 46%
    21:00 +9°C° 0 mm 2 mps 741 mmHg 48%
    22:00 +9°C° 0 mm 2 mps 741 mmHg 49%
    23:00 +9°C° 0 mm 2 mps 741 mmHg 51%

    26 October, Friday

    Time Temperature Precipitation Wind Pressure Humidity
    00:00 +9°C° 0 mm 2 mps 741 mmHg 53%
    01:00 +9°C° 0 mm 2 mps 740 mmHg 55%
    02:00 +9°C° 0 mm 2 mps 740 mmHg 55%
    03:00 +9°C° 0 mm 2 mps 740 mmHg 56%
    04:00 +9°C° 0 mm 2 mps 740 mmHg 56%
    05:00 +9°C° 0 mm 2 mps 740 mmHg 55%
    06:00 +10°C° 0 mm 2 mps 740 mmHg 53%
    07:00 +10°C° 0 mm 2 mps 740 mmHg 52%
    08:00 +14°C° 0 mm 2 mps 740 mmHg 46%
    09:00 +16°C° 0 mm 2 mps 740 mmHg 40%
    10:00 +19°C° 0 mm 2 mps 740 mmHg 34%
    11:00 +19°C° 0 mm 2 mps 740 mmHg 35%
    12:00 +20°C° 0 mm 3 mps 739 mmHg 35%
    13:00 +20°C° 0 mm 3 mps 739 mmHg 36%
    14:00 +19°C° 0 mm 3 mps 739 mmHg 39%
    15:00 +18°C° 0 mm 2 mps 739 mmHg 42%
    16:00 +18°C° 0 mm 2 mps 739 mmHg 45%
    17:00 +16°C° 0 mm 2 mps 739 mmHg 47%
    18:00 +15°C° 0 mm 2 mps 739 mmHg 50%
    19:00 +13°C° 0 mm 2 mps 739 mmHg 53%
    20:00 +13°C° 0 mm 2 mps 740 mmHg 54%
    21:00 +12°C° 0 mm 3 mps 740 mmHg 55%
    22:00 +12°C° 0 mm 3 mps 740 mmHg 56%
    23:00 +11°C° 0 mm 3 mps 740 mmHg 59%

    27 October, Saturday

    Time Temperature Precipitation Wind Pressure Humidity
    00:00 +11°C° 0 mm 3 mps 740 mmHg 62%
    01:00 +11°C° 0 mm 3 mps 740 mmHg 65%
    02:00 +12°C° 0 mm 3 mps 739 mmHg 65%
    03:00 +12°C° 0 mm 3 mps 739 mmHg 65%
    04:00 +12°C° 0 mm 3 mps 739 mmHg 65%
    05:00 +13°C° 0.1 mm 3 mps 739 mmHg 66%
    06:00 +13°C° 0.1 mm 3 mps 739 mmHg 67%
    07:00 +14°C° 0.1 mm 4 mps 739 mmHg 67%
    08:00 +15°C° 0.1 mm 4 mps 738 mmHg 69%
    09:00 +17°C° 0.1 mm 4 mps 738 mmHg 70%
    10:00 +17°C° 0.1 mm 5 mps 738 mmHg 72%
    11:00 +17°C° 0.3 mm 5 mps 737 mmHg 73%
    12:00 +17°C° 0.3 mm 5 mps 737 mmHg 75%
    13:00 +19°C° 0.3 mm 6 mps 736 mmHg 76%
    14:00 +19°C° 0.4 mm 6 mps 736 mmHg 78%
    15:00 +19°C° 0.4 mm 6 mps 736 mmHg 79%
    16:00 +19°C° 0.4 mm 6 mps 735 mmHg 81%
    17:00 +17°C° 0.2 mm 6 mps 736 mmHg 83%
    18:00 +16°C° 0.2 mm 6 mps 736 mmHg 85%
    19:00 +16°C° 0.2 mm 6 mps 736 mmHg 87%
    20:00 +16°C° 0.2 mm 6 mps 736 mmHg 87%
    21:00 +16°C° 0.2 mm 7 mps 736 mmHg 86%
    22:00 +16°C° 0.2 mm 7 mps 736 mmHg 85%
    23:00 +16°C° 0.3 mm 7 mps 736 mmHg 84%

    28 October, Sunday

    Time Temperature Precipitation Wind Pressure Humidity
    00:00 +16°C° 0.3 mm 7 mps 736 mmHg 82%
    01:00 +16°C° 0.3 mm 7 mps 736 mmHg 81%
    02:00 +16°C° 0.3 mm 7 mps 735 mmHg 79%
    03:00 +16°C° 0.3 mm 7 mps 735 mmHg 78%
    04:00 +15°C° 0.3 mm 7 mps 735 mmHg 77%
    05:00 +16°C° 0.3 mm 7 mps 735 mmHg 77%
    06:00 +16°C° 0.3 mm 7 mps 736 mmHg 77%
    07:00 +16°C° 0.3 mm 7 mps 736 mmHg 76%
    08:00 +17°C° 0.2 mm 7 mps 736 mmHg 73%
    09:00 +17°C° 0.2 mm 7 mps 736 mmHg 70%
    10:00 +18°C° 0.2 mm 7 mps 736 mmHg 66%
    11:00 +20°C° 0.1 mm 8 mps 736 mmHg 63%
    12:00 +21°C° 0.1 mm 8 mps 736 mmHg 59%
    13:00 +21°C° 0.1 mm 8 mps 736 mmHg 56%
    14:00 +21°C° 0.4 mm 7 mps 735 mmHg 60%
    15:00 +20°C° 0.4 mm 7 mps 735 mmHg 64%
    16:00 +19°C° 0.4 mm 6 mps 735 mmHg 67%
    17:00 +17°C° 0.8 mm 6 mps 735 mmHg 72%
    18:00 +17°C° 0.8 mm 6 mps 735 mmHg 76%
    19:00 +16°C° 0.8 mm 5 mps 735 mmHg 81%
    20:00 +16°C° 0.4 mm 5 mps 736 mmHg 79%
    21:00 +16°C° 0.4 mm 5 mps 736 mmHg 78%
    22:00 +16°C° 0.4 mm 5 mps 736 mmHg 76%
    23:00 +16°C° 1.3 mm 5 mps 735 mmHg 78%
    Show more